Location: Ceske Budejovice
(48.9830°N, 14.4670°E)
Time: 18:06:50
(UTC+02:00)

ISS - Pass Details

Date: 31 March 2019
Orbit: 408 x 410 km, 51.6° (Epoch: 24 April)

Event Time Altitude Azimuth Distance (km) Brightness Sun altitude
Rises 22:36:57 0° 290° (WNW) 2,338 1.0 -27.6°
Reaches altitude 10° 22:39:06 10° 283° (WNW) 1,474 -0.3 -27.9°
Enters shadow 22:39:41 14° 280° (W) 1,244 -0.8 -27.9°
